Погода в Хубар

Россия / Республика Дагестан     43°02′59″N   46°45′13″E
темп.,
°C
ветер,
м/с
пор.,
м/с
влажн.,
%
обл.,
%
осадки,
мм/ч
давл.,
гПа
погр.,
м
15 мая, сб
сб1500:00+16ююз44520 0.0 101350
03:00+16ююз43500 0.0 101336
06:00+18юз33540 0.0 101333
09:00+23св21420 0.0 1014699
12:00+26св32390 0.0 10131274
15:00+25всв32360 0.0 10121128
18:00+21в115645 0.0 101324
21:00+17ююз226590 0.0 101416
16 мая, вс
вс1600:00+17ююз326493 0.0 101325
03:00+16ююз336084 0.0 101233
06:00+17ююз33604 0.0 101157
09:00+24в23412 0.0 1010904
12:00+26в44342 0.0 10081673
15:00+25вюв66384 0.0 1007919
18:00+21юв45520 0.0 1007113
21:00+19ююз43520 0.0 100740
17 мая, пн
пн1700:00+18юз434150 0.0 100740
03:00+17ююз433350 0.0 100734
06:00+18юз334355 0.0 100733
09:00+25всв123025 0.0 1006566
12:00+28св33272 0.0 10051483
15:00+27всв32341 0.0 1005782
18:00+23ююв23556 0.0 100553
21:00+20зюз334478 0.0 100723
18 мая, вт
вт1800:00+17юз226486 0.0 100822
03:00+16зюз3376100 0.0 100873
06:00+16з5984100 0.0 1011551
09:00+15зсз5888100 0.6 1012726
12:00+16зсз5882100 2.3 1013850
15:00+15зсз3585100 2.9 1014401
18:00+15сз2482100 0.0 1014317
21:00+13зюз358593 0.6 101694
19 мая, ср
ср1900:00+13зюз338127 0.4 101650
03:00+12зюз33801 0.4 101635
06:00+14зюз23775 0.0 1017106
09:00+19с23550 0.0 1016963
12:00+21ссв325217 0.0 10161305
15:00+21всв324926 0.1 10151197
18:00+19в23620 0.0 1015131
21:00+15ю33695 0.0 101635